START_TIME,STEP,MOV.,P1,t_acc.,E44,t_acc.,A3,t_acc.,P10,t_acc.
1989-08-27T18:00:23.760 ,7,0,0.,1.2,0.,1.2,3.,1.2,0.,1.2
1989-08-27T18:00:24.960 ,7,0,0.,1.2,0.,1.2,4.,1.2,0.,1.2
1989-08-27T18:00:26.160 ,7,0,0.,1.2,0.,1.2,5.,1.2,0.,1.2
1989-08-27T18:00:27.360 ,7,0,0.,1.2,0.,1.2,1.,1.2,0.,1.2
1989-08-27T18:00:28.560 ,7,0,0.,1.2,0.,1.2,10.,1.2,0.,1.2
1989-08-27T18:00:29.760 ,7,0,0.,1.2,0.,1.2,5.,1.2,0.,1.2
1989-08-27T18:00:30.960 ,7,0,0.,1.2,0.,1.2,2.,1.2,0.,1.2
1989-08-27T18:00:32.160 ,7,0,0.,1.2,0.,1.2,5.,1.2,0.,1.2
1989-08-27T18:00:33.360 ,7,0,0.,1.2,0.,1.2,12.,1.2,0.,1.2
1989-08-27T18:00:34.560 ,7,0,0.,1.2,0.,1.2,7.,1.2,0.,1.2
1989-08-27T18:00:35.760 ,7,0,0.,1.2,0.,1.2,3.,1.2,0.,1.2
1989-08-27T18:00:36.960 ,7,0,0.,1.2,0.,1.2,4.,1.2,0.,1.2
1989-08-27T18:00:38.160 ,7,0,0.,1.2,0.,1.2,10.,1.2,0.,1.2
1989-08-27T18:00:39.360 ,7,0,0.,1.2,0.,1.2,6.,1.2,0.,1.2
1989-08-27T18:00:40.560 ,7,0,0.,1.2,0.,1.2,4.,1.2,0.,1.2
1989-08-27T18:00:41.760 ,7,0,0.,1.2,0.,1.2,6.,1.2,0.,1.2
1989-08-27T18:00:42.960 ,7,0,0.,1.2,0.,1.2,8.,1.2,0.,1.2
1989-08-27T18:00:44.160 ,7,0,0.,1.2,0.,1.2,3.,1.2,0.,1.2
1989-08-27T18:00:45.360 ,7,0,0.,1.2,0.,1.2,8.,1.2,0.,1.2
1989-08-27T18:00:46.560 ,7,0,0.,1.2,0.,1.2,2.,1.2,0.,1.2
1989-08-27T18:00:47.760 ,7,0,0.,1.2,0.,1.2,4.,1.2,0.,1.2
1989-08-27T18:00:48.960 ,7,0,0.,1.2,0.,1.2,5.,1.2,0.,1.2
1989-08-27T18:00:50.160 ,7,0,0.,1.2,0.,1.2,3.,1.2,0.,1.2
1989-08-27T18:00:51.360 ,7,0,0.,1.2,0.,1.2,7.,1.2,0.,1.2
1989-08-27T18:00:52.560 ,7,0,0.,1.2,0.,1.2,6.,1.2,0.,1.2
1989-08-27T18:00:53.760 ,7,0,0.,1.2,0.,1.2,3.,1.2,0.,1.2
1989-08-27T18:00:54.960 ,7,0,0.,1.2,0.,1.2,10.,1.2,0.,1.2
1989-08-27T18:00:56.160 ,7,0,0.,1.2,0.,1.2,2.,1.2,0.,1.2
1989-08-27T18:00:57.360 ,7,0,0.,1.2,0.,1.2,4.,1.2,0.,1.2
1989-08-27T18:00:58.560 ,7,0,0.,1.2,0.,1.2,2.,1.2,0.,1.2
1989-08-27T18:00:59.760 ,7,0,0.,1.2,0.,1.2,7.,1.2,0.,1.2
1989-08-27T18:01:00.960 ,7,0,0.,1.2,0.,1.2,5.,1.2,0.,1.2
1989-08-27T18:01:02.160 ,7,0,0.,1.2,0.,1.2,6.,1.2,0.,1.2
1989-08-27T18:01:03.360 ,7,0,0.,1.2,0.,1.2,1.,1.2,0.,1.2
1989-08-27T18:01:04.560 ,7,0,0.,1.2,0.,1.2,5.,1.2,0.,1.2
1989-08-27T18:01:05.760 ,7,0,0.,1.2,0.,1.2,3.,1.2,0.,1.2
1989-08-27T18:01:06.960 ,7,0,0.,1.2,0.,1.2,3.,1.2,0.,1.2
1989-08-27T18:01:08.160 ,7,0,0.,1.2,0.,1.2,7.,1.2,0.,1.2
1989-08-27T18:01:09.360 ,7,0,0.,1.2,0.,1.2,9.,1.2,0.,1.2
1989-08-27T18:01:10.560 ,7,0,0.,1.2,0.,1.2,6.,1.2,0.,1.2
1989-08-27T18:01:11.760 ,7,0,0.,1.2,0.,1.2,5.,1.2,0.,1.2
1989-08-27T18:01:12.960 ,7,0,0.,1.2,0.,1.2,8.,1.2,0.,1.2
1989-08-27T18:01:14.160 ,7,0,0.,1.2,0.,1.2,3.,1.2,0.,1.2
1989-08-27T18:01:15.360 ,7,0,0.,1.2,0.,1.2,9.,1.2,0.,1.2
1989-08-27T18:01:16.560 ,7,0,0.,1.2,0.,1.2,6.,1.2,0.,1.2
1989-08-27T18:01:17.760 ,7,0,0.,1.2,0.,1.2,5.,1.2,0.,1.2
1989-08-27T18:01:18.960 ,7,0,0.,1.2,0.,1.2,2.,1.2,0.,1.2
1989-08-27T18:01:20.160 ,7,0,0.,1.2,0.,1.2,4.,1.2,0.,1.2
1989-08-27T18:01:21.360 ,7,0,0.,1.2,0.,1.2,10.,1.2,0.,1.2
1989-08-27T18:01:22.560 ,7,0,0.,1.2,0.,1.2,7.,1.2,0.,1.2
1989-08-27T18:01:23.760 ,7,0,0.,1.2,0.,1.2,6.,1.2,0.,1.2
1989-08-27T18:01:24.960 ,7,0,0.,1.2,0.,1.2,6.,1.2,0.,1.2
1989-08-27T18:01:26.160 ,7,0,0.,1.2,0.,1.2,8.,1.2,0.,1.2
1989-08-27T18:01:27.360 ,7,0,0.,1.2,0.,1.2,7.,1.2,0.,1.2
1989-08-27T18:01:28.560 ,7,0,0.,1.2,0.,1.2,8.,1.2,0.,1.2
1989-08-27T18:01:29.760 ,7,0,0.,1.2,0.,1.2,6.,1.2,0.,1.2
1989-08-27T18:01:30.960 ,7,0,0.,1.2,0.,1.2,6.,1.2,0.,1.2
1989-08-27T18:01:32.160 ,7,0,0.,1.2,0.,1.2,3.,1.2,0.,1.2
1989-08-27T18:01:33.360 ,7,0,0.,1.2,0.,1.2,3.,1.2,0.,1.2
1989-08-27T18:01:34.560 ,7,0,0.,1.2,0.,1.2,4.,1.2,0.,1.2
1989-08-27T18:01:35.760 ,6,0,0.,1.2,0.,1.2,6.,1.2,0.,1.2
1989-08-27T18:01:36.960 ,6,0,0.,1.2,0.,1.2,5.,1.2,0.,1.2
1989-08-27T18:01:38.160 ,6,0,0.,1.2,0.,1.2,6.,1.2,0.,1.2
1989-08-27T18:01:39.360 ,6,0,0.,1.2,0.,1.2,9.,1.2,0.,1.2
1989-08-27T18:01:40.560 ,6,0,0.,1.2,0.,1.2,4.,1.2,0.,1.2
1989-08-27T18:01:41.760 ,6,0,0.,1.2,0.,1.2,2.,1.2,0.,1.2
1989-08-27T18:01:42.960 ,6,0,0.,1.2,0.,1.2,0.,1.2,0.,1.2
1989-08-27T18:01:44.160 ,6,0,0.,1.2,0.,1.2,0.,1.2,0.,1.2
1989-08-27T18:01:45.360 ,6,0,0.,1.2,0.,1.2,0.,1.2,0.,1.2
1989-08-27T18:01:46.560 ,6,0,0.,1.2,0.,1.2,0.,1.2,0.,1.2
1989-08-27T18:01:47.760 ,6,0,0.,1.2,0.,1.2,0.,1.2,0.,1.2
1989-08-27T18:01:48.960 ,6,0,1.,1.2,0.,1.2,0.,1.2,0.,1.2
1989-08-27T18:01:50.160 ,6,0,0.,1.2,0.,1.2,0.,1.2,0.,1.2
1989-08-27T18:01:51.360 ,6,0,0.,1.2,0.,1.2,0.,1.2,0.,1.2
1989-08-27T18:01:52.560 ,6,0,0.,1.2,0.,1.2,0.,1.2,0.,1.2
1989-08-27T18:01:53.760 ,6,0,0.,1.2,0.,1.2,0.,1.2,0.,1.2
1989-08-27T18:01:54.960 ,6,0,0.,1.2,0.,1.2,0.,1.2,0.,1.2
1989-08-27T18:01:56.160 ,6,0,0.,1.2,0.,1.2,0.,1.2,0.,1.2
1989-08-27T18:01:57.360 ,6,0,0.,1.2,0.,1.2,0.,1.2,0.,1.2
1989-08-27T18:01:58.560 ,6,0,0.,1.2,0.,1.2,0.,1.2,0.,1.2
1989-08-27T18:01:59.760 ,6,0,0.,1.2,0.,1.2,0.,1.2,0.,1.2
1989-08-27T18:02:00.960 ,6,0,0.,1.2,0.,1.2,0.,1.2,0.,1.2
1989-08-27T18:02:02.160 ,6,0,0.,1.2,0.,1.2,0.,1.2,0.,1.2
1989-08-27T18:02:03.360 ,6,0,0.,1.2,0.,1.2,0.,1.2,0.,1.2
1989-08-27T18:02:04.560 ,6,0,0.,1.2,0.,1.2,0.,1.2,0.,1.2
1989-08-27T18:02:05.760 ,6,0,0.,1.2,0.,1.2,0.,1.2,0.,1.2
1989-08-27T18:02:06.960 ,6,0,1.,1.2,0.,1.2,0.,1.2,0.,1.2
1989-08-27T18:02:08.160 ,6,0,0.,1.2,0.,1.2,0.,1.2,0.,1.2
1989-08-27T18:02:09.360 ,6,0,0.,1.2,0.,1.2,0.,1.2,0.,1.2
1989-08-27T18:02:10.560 ,6,0,0.,1.2,0.,1.2,0.,1.2,0.,1.2
1989-08-27T18:02:11.760 ,6,0,0.,1.2,0.,1.2,0.,1.2,0.,1.2
1989-08-27T18:02:12.960 ,6,0,0.,1.2,0.,1.2,0.,1.2,0.,1.2
1989-08-27T18:02:14.160 ,6,0,0.,1.2,0.,1.2,0.,1.2,0.,1.2
1989-08-27T18:02:15.360 ,6,0,0.,1.2,0.,1.2,0.,1.2,0.,1.2
1989-08-27T18:02:16.560 ,6,0,0.,1.2,0.,1.2,0.,1.2,0.,1.2
1989-08-27T18:02:17.760 ,6,0,0.,1.2,0.,1.2,0.,1.2,0.,1.2
1989-08-27T18:02:18.960 ,6,0,0.,1.2,0.,1.2,0.,1.2,0.,1.2
1989-08-27T18:02:20.160 ,6,0,0.,1.2,0.,1.2,0.,1.2,0.,1.2
1989-08-27T18:02:21.360 ,6,0,0.,1.2,0.,1.2,0.,1.2,0.,1.2
1989-08-27T18:02:22.560 ,6,0,0.,1.2,0.,1.2,0.,1.2,0.,1.2
1989-08-27T18:02:23.760 ,5,0,0.,1.2,0.,1.2,0.,1.2,0.,1.2
1989-08-27T18:02:24.960 ,5,0,0.,1.2,0.,1.2,0.,1.2,0.,1.2
1989-08-27T18:02:26.160 ,5,0,0.,1.2,0.,1.2,0.,1.2,0.,1.2
1989-08-27T18:02:27.360 ,5,0,0.,1.2,0.,1.2,0.,1.2,0.,1.2
1989-08-27T18:02:28.560 ,5,0,0.,1.2,0.,1.2,0.,1.2,0.,1.2
1989-08-27T18:02:29.760 ,5,0,0.,1.2,0.,1.2,0.,1.2,0.,1.2
1989-08-27T18:02:30.960 ,5,0,0.,1.2,0.,1.2,0.,1.2,0.,1.2
1989-08-27T18:02:32.160 ,5,0,0.,1.2,0.,1.2,0.,1.2,0.,1.2
1989-08-27T18:02:33.360 ,5,0,0.,1.2,0.,1.2,1.,1.2,0.,1.2
1989-08-27T18:02:34.560 ,5,0,0.,1.2,0.,1.2,0.,1.2,0.,1.2
1989-08-27T18:02:35.760 ,5,0,0.,1.2,0.,1.2,0.,1.2,0.,1.2
1989-08-27T18:02:36.960 ,5,0,0.,1.2,0.,1.2,0.,1.2,0.,1.2
1989-08-27T18:02:38.160 ,5,0,0.,1.2,0.,1.2,0.,1.2,0.,1.2
1989-08-27T18:02:39.360 ,5,0,0.,1.2,0.,1.2,0.,1.2,0.,1.2
1989-08-27T18:02:40.560 ,5,0,0.,1.2,0.,1.2,0.,1.2,0.,1.2
1989-08-27T18:02:41.760 ,5,0,0.,1.2,0.,1.2,0.,1.2,0.,1.2
1989-08-27T18:02:42.960 ,5,0,0.,1.2,0.,1.2,0.,1.2,0.,1.2
1989-08-27T18:02:44.160 ,5,0,0.,1.2,0.,1.2,0.,1.2,0.,1.2
1989-08-27T18:02:45.360 ,5,0,0.,1.2,0.,1.2,0.,1.2,0.,1.2
1989-08-27T18:02:46.560 ,5,0,0.,1.2,0.,1.2,0.,1.2,0.,1.2
1989-08-27T18:02:47.760 ,5,0,0.,1.2,0.,1.2,0.,1.2,0.,1.2
1989-08-27T18:02:48.960 ,5,0,0.,1.2,0.,1.2,0.,1.2,0.,1.2
1989-08-27T18:02:50.160 ,5,0,0.,1.2,0.,1.2,0.,1.2,0.,1.2
1989-08-27T18:02:51.360 ,5,0,0.,1.2,0.,1.2,0.,1.2,0.,1.2
1989-08-27T18:02:52.560 ,5,0,0.,1.2,0.,1.2,0.,1.2,0.,1.2
1989-08-27T18:02:53.760 ,5,0,0.,1.2,0.,1.2,0.,1.2,0.,1.2
1989-08-27T18:02:54.960 ,5,0,0.,1.2,0.,1.2,0.,1.2,0.,1.2
1989-08-27T18:02:56.160 ,5,0,0.,1.2,0.,1.2,0.,1.2,0.,1.2
1989-08-27T18:02:57.360 ,5,0,0.,1.2,0.,1.2,0.,1.2,0.,1.2
1989-08-27T18:02:58.560 ,5,0,0.,1.2,0.,1.2,0.,1.2,0.,1.2
1989-08-27T18:02:59.760 ,5,0,1.,1.2,0.,1.2,0.,1.2,0.,1.2
1989-08-27T18:03:00.960 ,5,0,0.,1.2,0.,1.2,0.,1.2,0.,1.2
1989-08-27T18:03:02.160 ,5,0,1.,1.2,0.,1.2,0.,1.2,0.,1.2
1989-08-27T18:03:03.360 ,5,0,1.,1.2,0.,1.2,0.,1.2,0.,1.2
1989-08-27T18:03:04.560 ,5,0,0.,1.2,0.,1.2,0.,1.2,0.,1.2
1989-08-27T18:03:05.760 ,5,0,0.,1.2,0.,1.2,0.,1.2,0.,1.2
1989-08-27T18:03:06.960 ,5,0,0.,1.2,0.,1.2,0.,1.2,0.,1.2
1989-08-27T18:03:08.160 ,5,0,0.,1.2,0.,1.2,0.,1.2,0.,1.2
1989-08-27T18:03:09.360 ,5,0,0.,1.2,0.,1.2,0.,1.2,0.,1.2
1989-08-27T18:03:10.560 ,5,0,0.,1.2,0.,1.2,0.,1.2,0.,1.2
1989-08-27T18:03:11.760 ,4,0,0.,1.2,0.,1.2,0.,1.2,0.,1.2
1989-08-27T18:03:12.960 ,4,0,0.,1.2,0.,1.2,0.,1.2,0.,1.2
1989-08-27T18:03:14.160 ,4,0,0.,1.2,0.,1.2,0.,1.2,0.,1.2
1989-08-27T18:03:15.360 ,4,0,0.,1.2,0.,1.2,0.,1.2,0.,1.2
1989-08-27T18:03:16.560 ,4,0,0.,1.2,0.,1.2,0.,1.2,0.,1.2
1989-08-27T18:03:17.760 ,4,0,0.,1.2,0.,1.2,0.,1.2,0.,1.2
1989-08-27T18:03:18.960 ,4,0,0.,1.2,0.,1.2,0.,1.2,0.,1.2
1989-08-27T18:03:20.160 ,4,0,0.,1.2,0.,1.2,0.,1.2,0.,1.2
1989-08-27T18:03:21.360 ,4,0,0.,1.2,0.,1.2,0.,1.2,0.,1.2
1989-08-27T18:03:22.560 ,4,0,0.,1.2,0.,1.2,0.,1.2,0.,1.2
1989-08-27T18:03:23.760 ,4,0,0.,1.2,0.,1.2,0.,1.2,0.,1.2
1989-08-27T18:03:24.960 ,4,0,1.,1.2,0.,1.2,0.,1.2,0.,1.2
1989-08-27T18:03:26.160 ,4,0,0.,1.2,0.,1.2,0.,1.2,0.,1.2
1989-08-27T18:03:27.360 ,4,0,0.,1.2,0.,1.2,0.,1.2,0.,1.2
1989-08-27T18:03:28.560 ,4,0,0.,1.2,0.,1.2,0.,1.2,0.,1.2
1989-08-27T18:03:29.760 ,4,0,0.,1.2,0.,1.2,0.,1.2,0.,1.2
1989-08-27T18:03:30.960 ,4,0,0.,1.2,0.,1.2,0.,1.2,0.,1.2
1989-08-27T18:03:32.160 ,4,0,0.,1.2,0.,1.2,0.,1.2,0.,1.2
1989-08-27T18:03:33.360 ,4,0,0.,1.2,0.,1.2,0.,1.2,0.,1.2
1989-08-27T18:03:34.560 ,4,0,0.,1.2,0.,1.2,0.,1.2,0.,1.2
1989-08-27T18:03:35.760 ,4,0,0.,1.2,0.,1.2,0.,1.2,0.,1.2
1989-08-27T18:03:36.960 ,4,0,0.,1.2,0.,1.2,0.,1.2,0.,1.2
1989-08-27T18:03:38.160 ,4,0,0.,1.2,0.,1.2,0.,1.2,0.,1.2
1989-08-27T18:03:39.360 ,4,0,0.,1.2,0.,1.2,0.,1.2,0.,1.2
1989-08-27T18:03:40.560 ,4,0,0.,1.2,0.,1.2,0.,1.2,0.,1.2
1989-08-27T18:03:41.760 ,4,0,1.,1.2,0.,1.2,0.,1.2,0.,1.2
1989-08-27T18:03:42.960 ,4,0,0.,1.2,0.,1.2,0.,1.2,0.,1.2
1989-08-27T18:03:44.160 ,4,0,0.,1.2,0.,1.2,0.,1.2,0.,1.2
1989-08-27T18:03:45.360 ,4,0,0.,1.2,0.,1.2,0.,1.2,0.,1.2
1989-08-27T18:03:46.560 ,4,0,0.,1.2,0.,1.2,0.,1.2,0.,1.2
1989-08-27T18:03:47.760 ,4,0,1.,1.2,0.,1.2,0.,1.2,0.,1.2
1989-08-27T18:03:48.960 ,4,0,0.,1.2,0.,1.2,0.,1.2,0.,1.2
1989-08-27T18:03:50.160 ,4,0,1.,1.2,0.,1.2,1.,1.2,0.,1.2
1989-08-27T18:03:51.360 ,4,0,0.,1.2,0.,1.2,0.,1.2,0.,1.2
1989-08-27T18:03:52.560 ,4,0,0.,1.2,0.,1.2,0.,1.2,0.,1.2
1989-08-27T18:03:53.760 ,4,0,1.,1.2,0.,1.2,0.,1.2,0.,1.2
1989-08-27T18:03:54.960 ,4,0,0.,1.2,0.,1.2,0.,1.2,0.,1.2
1989-08-27T18:03:56.160 ,4,0,0.,1.2,0.,1.2,0.,1.2,0.,1.2
1989-08-27T18:03:57.360 ,4,0,0.,1.2,0.,1.2,0.,1.2,0.,1.2
1989-08-27T18:03:58.560 ,4,0,0.,1.2,0.,1.2,0.,1.2,0.,1.2
1989-08-27T18:03:59.760 ,3,0,0.,1.2,0.,1.2,0.,1.2,0.,1.2
1989-08-27T18:04:00.960 ,3,0,0.,1.2,0.,1.2,0.,1.2,0.,1.2
1989-08-27T18:04:02.160 ,3,0,0.,1.2,0.,1.2,0.,1.2,0.,1.2
1989-08-27T18:04:03.360 ,3,0,0.,1.2,0.,1.2,0.,1.2,0.,1.2
1989-08-27T18:04:04.560 ,3,0,0.,1.2,0.,1.2,0.,1.2,0.,1.2
1989-08-27T18:04:05.760 ,3,0,0.,1.2,0.,1.2,0.,1.2,0.,1.2
1989-08-27T18:04:06.960 ,3,0,0.,1.2,0.,1.2,0.,1.2,0.,1.2
1989-08-27T18:04:08.160 ,3,0,0.,1.2,0.,1.2,0.,1.2,0.,1.2
1989-08-27T18:04:09.360 ,3,0,0.,1.2,0.,1.2,0.,1.2,0.,1.2
1989-08-27T18:04:10.560 ,3,0,0.,1.2,0.,1.2,0.,1.2,0.,1.2
1989-08-27T18:04:11.760 ,3,0,0.,1.2,0.,1.2,0.,1.2,0.,1.2
1989-08-27T18:04:12.960 ,3,0,0.,1.2,0.,1.2,0.,1.2,0.,1.2
1989-08-27T18:04:14.160 ,3,0,0.,1.2,0.,1.2,0.,1.2,0.,1.2
1989-08-27T18:04:15.360 ,3,0,0.,1.2,0.,1.2,0.,1.2,0.,1.2
1989-08-27T18:04:16.560 ,3,0,0.,1.2,0.,1.2,0.,1.2,0.,1.2
1989-08-27T18:04:17.760 ,3,0,0.,1.2,0.,1.2,0.,1.2,0.,1.2
1989-08-27T18:04:18.960 ,3,0,0.,1.2,0.,1.2,0.,1.2,0.,1.2
1989-08-27T18:04:20.160 ,3,0,0.,1.2,0.,1.2,0.,1.2,0.,1.2
1989-08-27T18:04:21.360 ,3,0,0.,1.2,0.,1.2,0.,1.2,0.,1.2
1989-08-27T18:04:22.560 ,3,0,0.,1.2,0.,1.2,0.,1.2,0.,1.2
1989-08-27T18:04:23.760 ,3,0,0.,1.2,0.,1.2,0.,1.2,0.,1.2
1989-08-27T18:04:24.960 ,3,0,0.,1.2,0.,1.2,0.,1.2,0.,1.2
1989-08-27T18:04:26.160 ,3,0,0.,1.2,0.,1.2,0.,1.2,0.,1.2
1989-08-27T18:04:27.360 ,3,0,0.,1.2,0.,1.2,0.,1.2,0.,1.2
1989-08-27T18:04:28.560 ,3,0,1.,1.2,0.,1.2,0.,1.2,0.,1.2
1989-08-27T18:04:29.760 ,3,0,0.,1.2,0.,1.2,0.,1.2,0.,1.2
1989-08-27T18:04:30.960 ,3,0,1.,1.2,0.,1.2,0.,1.2,0.,1.2
1989-08-27T18:04:32.160 ,3,0,0.,1.2,0.,1.2,0.,1.2,0.,1.2
1989-08-27T18:04:33.360 ,3,0,0.,1.2,0.,1.2,0.,1.2,0.,1.2
1989-08-27T18:04:34.560 ,3,0,0.,1.2,0.,1.2,0.,1.2,0.,1.2
1989-08-27T18:04:35.760 ,3,0,0.,1.2,0.,1.2,1.,1.2,0.,1.2
1989-08-27T18:04:36.960 ,3,0,0.,1.2,0.,1.2,0.,1.2,0.,1.2
1989-08-27T18:04:38.160 ,3,0,1.,1.2,0.,1.2,0.,1.2,0.,1.2
1989-08-27T18:04:39.360 ,3,0,0.,1.2,0.,1.2,0.,1.2,0.,1.2
1989-08-27T18:04:40.560 ,3,0,0.,1.2,0.,1.2,0.,1.2,0.,1.2
1989-08-27T18:04:41.760 ,3,0,0.,1.2,0.,1.2,0.,1.2,0.,1.2
1989-08-27T18:04:42.960 ,3,0,0.,1.2,0.,1.2,0.,1.2,0.,1.2
1989-08-27T18:04:44.160 ,3,0,0.,1.2,0.,1.2,0.,1.2,0.,1.2
1989-08-27T18:04:45.360 ,3,0,0.,1.2,0.,1.2,0.,1.2,0.,1.2
1989-08-27T18:04:46.560 ,3,0,0.,1.2,0.,1.2,0.,1.2,0.,1.2
1989-08-27T18:04:47.760 ,2,0,0.,1.2,0.,1.2,0.,1.2,0.,1.2
1989-08-27T18:04:48.960 ,2,0,0.,1.2,0.,1.2,0.,1.2,0.,1.2
1989-08-27T18:04:50.160 ,2,0,0.,1.2,0.,1.2,0.,1.2,0.,1.2
1989-08-27T18:04:51.360 ,2,0,0.,1.2,0.,1.2,0.,1.2,0.,1.2
1989-08-27T18:04:52.560 ,2,0,0.,1.2,0.,1.2,0.,1.2,0.,1.2
1989-08-27T18:04:53.760 ,2,0,1.,1.2,0.,1.2,0.,1.2,0.,1.2
1989-08-27T18:04:54.960 ,2,0,0.,1.2,0.,1.2,0.,1.2,0.,1.2
1989-08-27T18:04:56.160 ,2,0,0.,1.2,0.,1.2,0.,1.2,0.,1.2
1989-08-27T18:04:57.360 ,2,0,0.,1.2,0.,1.2,0.,1.2,0.,1.2
1989-08-27T18:04:58.560 ,2,0,0.,1.2,0.,1.2,0.,1.2,0.,1.2
1989-08-27T18:04:59.760 ,2,0,0.,1.2,0.,1.2,0.,1.2,0.,1.2
1989-08-27T18:05:00.960 ,2,0,0.,1.2,0.,1.2,0.,1.2,0.,1.2
1989-08-27T18:05:02.160 ,2,0,0.,1.2,0.,1.2,0.,1.2,0.,1.2
1989-08-27T18:05:03.360 ,2,0,1.,1.2,0.,1.2,0.,1.2,0.,1.2
1989-08-27T18:05:04.560 ,2,0,0.,1.2,0.,1.2,0.,1.2,0.,1.2
1989-08-27T18:05:05.760 ,2,0,0.,1.2,0.,1.2,0.,1.2,0.,1.2
1989-08-27T18:05:06.960 ,2,0,1.,1.2,0.,1.2,0.,1.2,0.,1.2
1989-08-27T18:05:08.160 ,2,0,0.,1.2,0.,1.2,0.,1.2,0.,1.2
1989-08-27T18:05:09.360 ,2,0,0.,1.2,0.,1.2,0.,1.2,0.,1.2
1989-08-27T18:05:10.560 ,2,0,0.,1.2,0.,1.2,0.,1.2,0.,1.2
1989-08-27T18:05:11.760 ,2,0,1.,1.2,0.,1.2,0.,1.2,0.,1.2
1989-08-27T18:05:12.960 ,2,0,0.,1.2,0.,1.2,0.,1.2,0.,1.2
1989-08-27T18:05:14.160 ,2,0,0.,1.2,0.,1.2,0.,1.2,0.,1.2
1989-08-27T18:05:15.360 ,2,0,0.,1.2,0.,1.2,0.,1.2,0.,1.2
1989-08-27T18:05:16.560 ,2,0,0.,1.2,0.,1.2,0.,1.2,0.,1.2
1989-08-27T18:05:17.760 ,2,0,0.,1.2,0.,1.2,0.,1.2,0.,1.2
1989-08-27T18:05:18.960 ,2,0,0.,1.2,0.,1.2,0.,1.2,0.,1.2
1989-08-27T18:05:20.160 ,2,0,0.,1.2,0.,1.2,0.,1.2,0.,1.2
1989-08-27T18:05:21.360 ,2,0,1.,1.2,0.,1.2,0.,1.2,0.,1.2
1989-08-27T18:05:22.560 ,2,0,0.,1.2,0.,1.2,0.,1.2,0.,1.2
1989-08-27T18:05:23.760 ,2,0,0.,1.2,0.,1.2,0.,1.2,0.,1.2
1989-08-27T18:05:24.960 ,2,0,0.,1.2,0.,1.2,0.,1.2,0.,1.2
1989-08-27T18:05:26.160 ,2,0,1.,1.2,0.,1.2,0.,1.2,0.,1.2
1989-08-27T18:05:27.360 ,2,0,0.,1.2,0.,1.2,0.,1.2,0.,1.2
1989-08-27T18:05:28.560 ,2,0,0.,1.2,0.,1.2,0.,1.2,0.,1.2
1989-08-27T18:05:29.760 ,2,0,0.,1.2,0.,1.2,0.,1.2,0.,1.2
1989-08-27T18:05:30.960 ,2,0,0.,1.2,0.,1.2,0.,1.2,0.,1.2
1989-08-27T18:05:32.160 ,2,0,0.,1.2,0.,1.2,0.,1.2,0.,1.2
1989-08-27T18:05:33.360 ,2,0,0.,1.2,0.,1.2,0.,1.2,0.,1.2
1989-08-27T18:05:34.560 ,2,0,0.,1.2,0.,1.2,0.,1.2,0.,1.2
1989-08-27T18:05:35.760 ,1,0,0.,1.2,0.,1.2,0.,1.2,0.,1.2
1989-08-27T18:05:36.960 ,1,0,1.,1.2,0.,1.2,0.,1.2,0.,1.2
1989-08-27T18:05:38.160 ,1,0,0.,1.2,0.,1.2,0.,1.2,0.,1.2
1989-08-27T18:05:39.360 ,1,0,0.,1.2,0.,1.2,0.,1.2,0.,1.2
1989-08-27T18:05:40.560 ,1,0,0.,1.2,0.,1.2,0.,1.2,0.,1.2
1989-08-27T18:05:41.760 ,1,0,0.,1.2,0.,1.2,0.,1.2,0.,1.2
1989-08-27T18:05:42.960 ,1,0,0.,1.2,0.,1.2,0.,1.2,0.,1.2
1989-08-27T18:05:44.160 ,1,0,1.,1.2,0.,1.2,0.,1.2,0.,1.2
1989-08-27T18:05:45.360 ,1,0,0.,1.2,0.,1.2,0.,1.2,0.,1.2
1989-08-27T18:05:46.560 ,1,0,0.,1.2,0.,1.2,0.,1.2,0.,1.2
1989-08-27T18:05:47.760 ,1,0,0.,1.2,0.,1.2,0.,1.2,0.,1.2
1989-08-27T18:05:48.960 ,1,0,0.,1.2,0.,1.2,0.,1.2,0.,1.2
1989-08-27T18:05:50.160 ,1,0,0.,1.2,0.,1.2,0.,1.2,0.,1.2
1989-08-27T18:05:51.360 ,1,0,0.,1.2,0.,1.2,0.,1.2,0.,1.2
1989-08-27T18:05:52.560 ,1,0,1.,1.2,0.,1.2,0.,1.2,0.,1.2
1989-08-27T18:05:53.760 ,1,0,0.,1.2,0.,1.2,0.,1.2,0.,1.2
1989-08-27T18:05:54.960 ,1,0,0.,1.2,0.,1.2,0.,1.2,0.,1.2
1989-08-27T18:05:56.160 ,1,0,0.,1.2,0.,1.2,0.,1.2,0.,1.2
1989-08-27T18:05:57.360 ,1,0,0.,1.2,0.,1.2,0.,1.2,0.,1.2
1989-08-27T18:05:58.560 ,1,0,0.,1.2,0.,1.2,0.,1.2,0.,1.2
1989-08-27T18:05:59.760 ,1,0,0.,1.2,0.,1.2,0.,1.2,0.,1.2
1989-08-27T18:06:00.960 ,1,0,0.,1.2,0.,1.2,0.,1.2,0.,1.2
1989-08-27T18:06:02.160 ,1,0,0.,1.2,0.,1.2,0.,1.2,0.,1.2
1989-08-27T18:06:03.360 ,1,0,0.,1.2,0.,1.2,0.,1.2,0.,1.2
1989-08-27T18:06:04.560 ,1,0,1.,1.2,0.,1.2,0.,1.2,0.,1.2
1989-08-27T18:06:05.760 ,1,0,0.,1.2,0.,1.2,0.,1.2,0.,1.2
1989-08-27T18:06:06.960 ,1,0,0.,1.2,0.,1.2,0.,1.2,0.,1.2
1989-08-27T18:06:08.160 ,1,0,0.,1.2,0.,1.2,0.,1.2,0.,1.2
1989-08-27T18:06:09.360 ,1,0,0.,1.2,0.,1.2,0.,1.2,0.,1.2
1989-08-27T18:06:10.560 ,1,0,0.,1.2,0.,1.2,0.,1.2,0.,1.2
1989-08-27T18:06:11.760 ,1,0,0.,1.2,0.,1.2,0.,1.2,0.,1.2
1989-08-27T18:06:12.960 ,1,0,0.,1.2,0.,1.2,0.,1.2,0.,1.2
1989-08-27T18:06:14.160 ,1,0,0.,1.2,0.,1.2,0.,1.2,0.,1.2
1989-08-27T18:06:15.360 ,1,0,0.,1.2,0.,1.2,0.,1.2,0.,1.2
1989-08-27T18:06:16.560 ,1,0,0.,1.2,0.,1.2,0.,1.2,0.,1.2
1989-08-27T18:06:17.760 ,1,0,1.,1.2,0.,1.2,0.,1.2,0.,1.2
1989-08-27T18:06:18.960 ,1,0,0.,1.2,0.,1.2,0.,1.2,0.,1.2
1989-08-27T18:06:20.160 ,1,0,0.,1.2,0.,1.2,0.,1.2,0.,1.2
1989-08-27T18:06:21.360 ,1,0,0.,1.2,0.,1.2,0.,1.2,0.,1.2
1989-08-27T18:06:22.560 ,1,0,0.,1.2,0.,1.2,0.,1.2,0.,1.2
1989-08-27T18:06:23.760 ,0,0,0.,1.2,0.,1.2,0.,1.2,0.,1.2
1989-08-27T18:06:24.960 ,0,0,0.,1.2,0.,1.2,0.,1.2,0.,1.2
1989-08-27T18:06:26.160 ,0,0,0.,1.2,0.,1.2,0.,1.2,0.,1.2
1989-08-27T18:06:27.360 ,0,0,0.,1.2,0.,1.2,0.,1.2,0.,1.2
1989-08-27T18:06:28.560 ,0,0,0.,1.2,0.,1.2,0.,1.2,0.,1.2
1989-08-27T18:06:29.760 ,0,0,0.,1.2,0.,1.2,0.,1.2,0.,1.2
1989-08-27T18:06:30.960 ,0,0,1.,1.2,0.,1.2,0.,1.2,0.,1.2
1989-08-27T18:06:32.160 ,0,0,0.,1.2,0.,1.2,0.,1.2,0.,1.2
1989-08-27T18:06:33.360 ,0,0,0.,1.2,0.,1.2,0.,1.2,0.,1.2
1989-08-27T18:06:34.560 ,0,0,0.,1.2,0.,1.2,0.,1.2,0.,1.2
1989-08-27T18:06:35.760 ,0,0,0.,1.2,0.,1.2,0.,1.2,0.,1.2
1989-08-27T18:06:36.960 ,0,0,0.,1.2,0.,1.2,0.,1.2,0.,1.2
1989-08-27T18:06:38.160 ,0,0,0.,1.2,0.,1.2,0.,1.2,0.,1.2
1989-08-27T18:06:39.360 ,0,0,0.,1.2,0.,1.2,0.,1.2,0.,1.2
1989-08-27T18:06:40.560 ,0,0,0.,1.2,0.,1.2,0.,1.2,0.,1.2
1989-08-27T18:06:41.760 ,0,0,0.,1.2,0.,1.2,0.,1.2,0.,1.2
1989-08-27T18:06:42.960 ,0,0,0.,1.2,0.,1.2,0.,1.2,0.,1.2
1989-08-27T18:06:44.160 ,0,0,0.,1.2,0.,1.2,0.,1.2,0.,1.2
1989-08-27T18:06:45.360 ,0,0,0.,1.2,0.,1.2,0.,1.2,0.,1.2
1989-08-27T18:06:46.560 ,0,0,0.,1.2,0.,1.2,0.,1.2,0.,1.2
1989-08-27T18:06:47.760 ,0,0,0.,1.2,0.,1.2,0.,1.2,0.,1.2
1989-08-27T18:06:48.960 ,0,0,0.,1.2,0.,1.2,0.,1.2,0.,1.2
1989-08-27T18:06:50.160 ,0,0,0.,1.2,0.,1.2,0.,1.2,0.,1.2
1989-08-27T18:06:51.360 ,0,0,0.,1.2,0.,1.2,0.,1.2,0.,1.2
1989-08-27T18:06:52.560 ,0,0,0.,1.2,0.,1.2,0.,1.2,0.,1.2
1989-08-27T18:06:53.760 ,0,0,0.,1.2,0.,1.2,0.,1.2,0.,1.2
1989-08-27T18:06:54.960 ,0,0,0.,1.2,0.,1.2,0.,1.2,0.,1.2
1989-08-27T18:06:56.160 ,0,0,1.,1.2,0.,1.2,0.,1.2,0.,1.2
1989-08-27T18:06:57.360 ,0,0,0.,1.2,0.,1.2,0.,1.2,0.,1.2
1989-08-27T18:06:58.560 ,0,0,0.,1.2,0.,1.2,0.,1.2,0.,1.2
1989-08-27T18:06:59.760 ,0,0,0.,1.2,0.,1.2,0.,1.2,0.,1.2
1989-08-27T18:07:00.960 ,0,0,0.,1.2,0.,1.2,0.,1.2,0.,1.2
1989-08-27T18:07:02.160 ,0,0,0.,1.2,0.,1.2,0.,1.2,0.,1.2
1989-08-27T18:07:03.360 ,0,0,0.,1.2,0.,1.2,0.,1.2,0.,1.2
1989-08-27T18:07:04.560 ,0,0,0.,1.2,0.,1.2,0.,1.2,0.,1.2
1989-08-27T18:07:05.760 ,0,0,0.,1.2,0.,1.2,0.,1.2,0.,1.2
1989-08-27T18:07:06.960 ,0,0,0.,1.2,0.,1.2,0.,1.2,0.,1.2
1989-08-27T18:07:08.160 ,0,0,0.,1.2,0.,1.2,0.,1.2,0.,1.2
1989-08-27T18:07:09.360 ,0,0,0.,1.2,0.,1.2,0.,1.2,0.,1.2
1989-08-27T18:07:10.560 ,0,0,0.,1.2,0.,1.2,0.,1.2,0.,1.2
1989-08-27T18:07:11.760 ,0,0,0.,1.2,0.,1.2,0.,1.2,0.,1.2
1989-08-27T18:07:12.960 ,0,0,0.,1.2,0.,1.2,0.,1.2,0.,1.2
1989-08-27T18:07:14.160 ,0,0,0.,1.2,0.,1.2,0.,1.2,0.,1.2
1989-08-27T18:07:15.360 ,0,0,0.,1.2,0.,1.2,0.,1.2,0.,1.2
1989-08-27T18:07:16.560 ,0,0,0.,1.2,0.,1.2,0.,1.2,0.,1.2
1989-08-27T18:07:17.760 ,0,0,0.,1.2,0.,1.2,0.,1.2,0.,1.2
1989-08-27T18:07:18.960 ,0,0,0.,1.2,0.,1.2,0.,1.2,0.,1.2
1989-08-27T18:07:20.160 ,0,0,0.,1.2,0.,1.2,0.,1.2,0.,1.2
1989-08-27T18:07:21.360 ,0,0,1.,1.2,0.,1.2,0.,1.2,0.,1.2
1989-08-27T18:07:22.560 ,0,0,0.,1.2,0.,1.2,0.,1.2,0.,1.2
1989-08-27T18:07:23.760 ,0,0,0.,1.2,0.,1.2,0.,1.2,0.,1.2
1989-08-27T18:07:24.960 ,0,0,0.,1.2,0.,1.2,0.,1.2,0.,1.2
1989-08-27T18:07:26.160 ,0,0,0.,1.2,0.,1.2,0.,1.2,0.,1.2
1989-08-27T18:07:27.360 ,0,0,0.,1.2,0.,1.2,0.,1.2,0.,1.2
1989-08-27T18:07:28.560 ,0,0,0.,1.2,0.,1.2,0.,1.2,0.,1.2
1989-08-27T18:07:29.760 ,0,0,0.,1.2,0.,1.2,0.,1.2,0.,1.2
1989-08-27T18:07:30.960 ,0,0,0.,1.2,0.,1.2,0.,1.2,0.,1.2
1989-08-27T18:07:32.160 ,0,0,0.,1.2,0.,1.2,0.,1.2,0.,1.2
1989-08-27T18:07:33.360 ,0,0,0.,1.2,0.,1.2,0.,1.2,0.,1.2
1989-08-27T18:07:34.560 ,0,0,0.,1.2,0.,1.2,0.,1.2,0.,1.2
1989-08-27T18:07:35.760 ,0,0,0.,1.2,0.,1.2,0.,1.2,0.,1.2
1989-08-27T18:07:36.960 ,0,0,0.,1.2,0.,1.2,0.,1.2,0.,1.2
1989-08-27T18:07:38.160 ,0,0,0.,1.2,0.,1.2,0.,1.2,0.,1.2
1989-08-27T18:07:39.360 ,0,0,0.,1.2,0.,1.2,0.,1.2,0.,1.2
1989-08-27T18:07:40.560 ,0,0,0.,1.2,0.,1.2,0.,1.2,0.,1.2
1989-08-27T18:07:41.760 ,0,0,0.,1.2,0.,1.2,0.,1.2,0.,1.2
1989-08-27T18:07:42.960 ,0,0,0.,1.2,0.,1.2,0.,1.2,0.,1.2
1989-08-27T18:07:44.160 ,0,0,0.,1.2,0.,1.2,0.,1.2,0.,1.2
1989-08-27T18:07:45.360 ,0,0,0.,1.2,0.,1.2,0.,1.2,0.,1.2
1989-08-27T18:07:46.560 ,0,0,0.,1.2,0.,1.2,0.,1.2,0.,1.2
1989-08-27T18:07:47.760 ,0,0,0.,1.2,0.,1.2,0.,1.2,0.,1.2
1989-08-27T18:07:48.960 ,0,0,0.,1.2,0.,1.2,0.,1.2,0.,1.2
1989-08-27T18:07:50.160 ,0,0,0.,1.2,0.,1.2,0.,1.2,0.,1.2
1989-08-27T18:07:51.360 ,0,0,0.,1.2,0.,1.2,0.,1.2,0.,1.2
1989-08-27T18:07:52.560 ,0,0,0.,1.2,0.,1.2,0.,1.2,0.,1.2
1989-08-27T18:07:53.760 ,0,0,0.,1.2,0.,1.2,0.,1.2,0.,1.2
1989-08-27T18:07:54.960 ,0,0,0.,1.2,0.,1.2,0.,1.2,0.,1.2
1989-08-27T18:07:56.160 ,0,0,0.,1.2,0.,1.2,0.,1.2,0.,1.2
1989-08-27T18:07:57.360 ,0,0,1.,1.2,0.,1.2,0.,1.2,0.,1.2
1989-08-27T18:07:58.560 ,0,0,0.,1.2,0.,1.2,0.,1.2,0.,1.2
1989-08-27T18:07:59.760 ,1,0,1.,1.2,0.,1.2,0.,1.2,0.,1.2
1989-08-27T18:08:00.960 ,1,0,0.,1.2,0.,1.2,0.,1.2,0.,1.2
1989-08-27T18:08:02.160 ,1,0,0.,1.2,0.,1.2,0.,1.2,0.,1.2
1989-08-27T18:08:03.360 ,1,0,0.,1.2,0.,1.2,0.,1.2,0.,1.2
1989-08-27T18:08:04.560 ,1,0,1.,1.2,0.,1.2,0.,1.2,0.,1.2
1989-08-27T18:08:05.760 ,1,0,0.,1.2,0.,1.2,0.,1.2,0.,1.2
1989-08-27T18:08:06.960 ,1,0,0.,1.2,0.,1.2,0.,1.2,0.,1.2
1989-08-27T18:08:08.160 ,1,0,0.,1.2,0.,1.2,0.,1.2,0.,1.2
1989-08-27T18:08:09.360 ,1,0,0.,1.2,0.,1.2,0.,1.2,0.,1.2
1989-08-27T18:08:10.560 ,1,0,0.,1.2,0.,1.2,0.,1.2,0.,1.2
1989-08-27T18:08:11.760 ,1,0,0.,1.2,0.,1.2,0.,1.2,0.,1.2
1989-08-27T18:08:12.960 ,1,0,0.,1.2,0.,1.2,0.,1.2,0.,1.2
1989-08-27T18:08:14.160 ,1,0,0.,1.2,0.,1.2,0.,1.2,0.,1.2
1989-08-27T18:08:15.360 ,1,0,0.,1.2,0.,1.2,0.,1.2,0.,1.2
1989-08-27T18:08:16.560 ,1,0,0.,1.2,0.,1.2,0.,1.2,0.,1.2
1989-08-27T18:08:17.760 ,1,0,0.,1.2,0.,1.2,0.,1.2,0.,1.2
1989-08-27T18:08:18.960 ,1,0,0.,1.2,0.,1.2,0.,1.2,0.,1.2
1989-08-27T18:08:20.160 ,1,0,0.,1.2,0.,1.2,0.,1.2,0.,1.2
1989-08-27T18:08:21.360 ,1,0,0.,1.2,0.,1.2,0.,1.2,0.,1.2
1989-08-27T18:08:22.560 ,1,0,0.,1.2,0.,1.2,0.,1.2,0.,1.2
1989-08-27T18:08:23.760 ,1,0,0.,1.2,0.,1.2,0.,1.2,0.,1.2
1989-08-27T18:08:24.960 ,1,0,0.,1.2,0.,1.2,0.,1.2,0.,1.2
1989-08-27T18:08:26.160 ,1,0,0.,1.2,0.,1.2,0.,1.2,0.,1.2
1989-08-27T18:08:27.360 ,1,0,0.,1.2,0.,1.2,0.,1.2,0.,1.2
1989-08-27T18:08:28.560 ,1,0,0.,1.2,0.,1.2,0.,1.2,0.,1.2
1989-08-27T18:08:29.760 ,1,0,0.,1.2,0.,1.2,0.,1.2,0.,1.2
1989-08-27T18:08:30.960 ,1,0,0.,1.2,0.,1.2,0.,1.2,0.,1.2
1989-08-27T18:08:32.160 ,1,0,0.,1.2,0.,1.2,0.,1.2,0.,1.2
1989-08-27T18:08:33.360 ,1,0,1.,1.2,0.,1.2,0.,1.2,0.,1.2
1989-08-27T18:08:34.560 ,1,0,0.,1.2,0.,1.2,0.,1.2,0.,1.2
1989-08-27T18:08:35.760 ,1,0,0.,1.2,0.,1.2,0.,1.2,0.,1.2
1989-08-27T18:08:36.960 ,1,0,0.,1.2,0.,1.2,0.,1.2,0.,1.2